1517040000.31,28468,11.56,74110.0,0.51,-30.51,-30.95,0,*41
1517040001.54,28469,11.56,74108.0,0.53,-30.83,-31.23,0,*41
1517040002.74,28470,11.56,74110.8,0.53,-30.61,-31.05,0,*41
1517040003.95,28471,11.56,74110.0,0.53,-30.45,-30.95,0,*4E
1517040005.19,28472,11.56,74110.5,0.55,-30.23,-30.73,0,*43
1517040006.43,28473,11.56,74108.8,0.57,-30.89,-31.11,0,*45
1517040007.67,28474,11.56,74110.8,0.55,-31.51,-32.01,0,*46
1517040008.91,28475,11.56,74112.3,0.55,-30.89,-31.33,0,*41
1517040010.15,28476,11.56,74110.8,0.55,-30.73,-31.17,0,*41
1517040011.4,28477,11.56,74108.3,0.55,-30.23,-30.77,0,*42
1517040012.63,28478,11.56,74110.8,0.55,-30.89,-31.33,0,*4C
1517040013.88,28479,11.56,74108.3,0.55,-30.73,-31.17,0,*4E
1517040015.12,28480,11.56,74108.5,0.55,-30.95,-31.33,0,*46
1517040016.33,28481,11.63,74114.8,0.57,-30.73,-31.17,0,*4B
1517040017.54,28482,11.56,74104.3,0.53,-30.51,-31.01,0,*4B
1517040018.75,28483,11.63,74112.0,0.53,-30.61,-31.01,0,*49
1517040019.96,28484,11.63,74108.3,0.53,-31.17,-31.51,0,*4B
1517040021.18,28485,11.63,74110.8,0.53,-30.67,-31.23,0,*49
1517040022.42,28486,11.63,74110.3,0.51,-31.23,-31.67,0,*49
1517040023.62,28487,11.63,74110.0,0.53,-30.83,-31.17,0,*46
1517040024.81,28488,11.63,74108.5,0.53,-30.67,-31.17,0,*43
1517040026.03,28489,11.63,74108.5,0.53,-31.23,-31.67,0,*44
1517040027.23,28490,11.63,74110.8,0.53,-31.17,-31.57,0,*48
1517040028.45,28491,11.63,74110.5,0.53,-30.95,-31.33,0,*40
1517040029.72,28492,11.63,74112.8,0.51,-30.77,-31.23,0,*4C
1517040030.9,28493,11.63,74112.0,0.53,-31.01,-31.33,0,*4E
1517040032.14,28494,11.63,74110.3,0.51,-30.95,-31.33,0,*47
1517040033.35,28495,11.63,74108.5,0.53,-31.05,-31.39,0,*46
1517040034.56,28496,11.63,74110.5,0.53,-30.61,-31.01,0,*4D
1517040035.77,28497,11.63,74110.8,0.53,-31.17,-31.57,0,*4F
1517040036.98,28498,11.63,74110.5,0.53,-31.17,-31.57,0,*40
1517040038.22,28499,11.63,74108.8,0.53,-31.57,-31.91,0,*4F
1517040039.44,28500,11.63,74110.0,0.51,-30.83,-31.33,0,*4C
1517040040.64,28501,11.63,74110.8,0.53,-31.17,-31.57,0,*41
1517040041.89,28502,11.63,74112.8,0.51,-30.95,-31.33,0,*49
1517040043.11,28503,11.63,74112.5,0.51,-30.67,-31.17,0,*43
1517040044.35,28504,11.63,74110.5,0.51,-30.51,-31.01,0,*46
1517040045.56,28505,11.63,74110.8,0.53,-30.61,-31.01,0,*46
1517040046.77,28506,11.63,74110.0,0.53,-30.77,-31.33,0,*43
1517040047.98,28507,11.63,74104.8,0.53,-30.95,-31.33,0,*4E
1517040049.22,28508,11.63,74108.3,0.51,-30.51,-31.01,0,*4A
1517040050.41,28509,11.63,74108.8,0.53,-30.67,-31.01,0,*4C
1517040051.63,28510,11.63,74108.8,0.53,-30.51,-30.83,0,*4A
1517040052.81,28511,11.63,74108.8,0.53,-30.67,-31.05,0,*41
1517040054.05,28512,11.63,74110.5,0.51,-30.45,-30.95,0,*48
1517040055.26,28513,11.69,74112.0,0.53,-30.61,-31.05,0,*45
1517040056.47,28514,11.63,74110.5,0.53,-30.51,-31.01,0,*45
1517040057.73,28515,11.63,74110.5,0.55,-30.61,-30.95,0,*4D
1517040058.96,28516,11.69,74110.5,0.55,-30.55,-31.01,0,*45
1517040060.2,28517,11.69,74112.5,0.55,-30.77,-31.17,0,*43
1517040061.47,28518,11.69,74110.8,0.55,-30.73,-31.11,0,*4E
1517040062.73,28519,11.69,74108.8,0.55,-30.39,-30.89,0,*41
1517040063.98,28520,11.69,74112.0,0.55,-30.27,-30.73,0,*41
1517040065.21,28521,11.69,74110.3,0.55,-30.55,-31.01,0,*41
1517040066.46,28522,11.69,74110.5,0.55,-30.95,-31.45,0,*4E
1517040067.72,28523,11.69,74108.5,0.55,-30.39,-31.11,0,*48
1517040068.96,28524,11.69,74108.5,0.55,-30.89,-31.33,0,*44
1517040070.17,28525,11.69,74108.8,0.55,-31.17,-31.67,0,*42
1517040071.38,28526,11.69,74108.5,0.57,-30.95,-31.33,0,*49
1517040072.59,28527,11.69,74108.3,0.57,-30.89,-31.29,0,*4E
1517040073.85,28528,11.69,74108.3,0.55,-30.55,-30.95,0,*44
1517040075.09,28529,11.69,74108.8,0.55,-30.89,-31.29,0,*42
1517040076.34,28530,11.69,74114.3,0.55,-30.73,-31.17,0,*42
1517040077.54,28531,11.69,74110.3,0.55,-30.45,-31.01,0,*41
1517040078.81,28532,11.69,74110.3,0.55,-30.61,-31.11,0,*45
1517040080.08,28533,11.69,74110.5,0.59,-30.51,-30.89,0,*4B
1517040081.33,28534,11.69,74114.8,0.55,-30.55,-30.95,0,*49
1517040082.54,28535,11.69,74112.0,0.57,-30.45,-30.95,0,*4B
1517040083.76,28536,11.69,74112.3,0.57,-30.27,-30.61,0,*47
1517040084.99,28537,11.69,74112.3,0.57,-30.39,-30.89,0,*4F
1517040086.2,28538,11.69,74110.8,0.57,-30.45,-30.95,0,*46
1517040087.42,28539,11.69,74110.8,0.57,-30.23,-30.77,0,*4B
1517040088.67,28540,11.69,74110.0,0.59,-30.17,-30.67,0,*4D
1517040089.9,28541,11.69,74112.0,0.61,-30.27,-30.77,0,*45
1517040091.11,28542,11.69,74112.5,0.61,-30.51,-31.05,0,*43
1517040092.31,28543,11.69,74112.0,0.61,-30.27,-30.83,0,*4C
1517040093.56,28544,11.69,74110.3,0.63,-30.33,-30.77,0,*47
1517040094.78,28545,11.75,74110.0,0.61,-30.67,-31.23,0,*45
1517040096.02,28546,11.69,74106.3,0.59,-30.67,-31.11,0,*4C
1517040097.29,28547,11.75,74108.3,0.59,-31.11,-31.57,0,*4F
1517040098.52,28548,11.69,74108.5,0.59,-31.39,-31.79,0,*46
1517040099.79,28549,11.69,74108.5,0.59,-31.11,-31.57,0,*41
1517040101.0,28550,11.69,74108.0,0.59,-30.83,-31.29,0,*4A
1517040102.27,28551,11.75,74114.0,0.59,-31.11,-31.57,0,*48
1517040103.54,28552,11.75,74108.8,0.59,-31.11,-31.39,0,*43
1517040104.8,28553,11.75,74106.8,0.59,-30.89,-31.57,0,*4A
1517040106.02,28554,11.75,74108.5,0.61,-30.83,-31.39,0,*44
1517040107.29,28555,11.75,74106.8,0.59,-31.57,-31.95,0,*40
1517040108.54,28556,11.75,74110.5,0.59,-31.39,-31.73,0,*43
1517040109.79,28557,11.69,74104.3,0.59,-30.73,-31.29,0,*42
1517040111.0,28558,11.75,74110.5,0.59,-30.67,-31.05,0,*46
1517040112.22,28559,11.75,74108.3,0.57,-30.77,-31.17,0,*4B
1517040113.48,28560,11.75,74110.0,0.59,-30.55,-31.11,0,*49
1517040114.71,28561,11.75,74110.8,0.59,-30.55,-31.05,0,*4D
1517040115.94,28562,11.75,74110.3,0.59,-30.55,-31.05,0,*4E
1517040117.15,28563,11.75,74112.3,0.61,-30.61,-31.05,0,*43
1517040118.35,28564,11.75,74112.3,0.61,-30.45,-30.83,0,*4D
1517040119.56,28565,11.75,74108.8,0.61,-30.45,-30.89,0,*46
1517040120.78,28566,11.75,74112.3,0.61,-30.77,-31.33,0,*44
1517040122.02,28567,11.75,74110.8,0.61,-30.77,-31.23,0,*44
1517040123.25,28568,11.75,74108.8,0.61,-30.17,-30.67,0,*4C
1517040124.47,28569,11.75,74110.0,0.61,-30.33,-30.77,0,*4A
1517040125.69,28570,11.75,74112.8,0.61,-30.45,-30.89,0,*42
1517040126.9,28571,11.75,74110.0,0.63,-30.45,-30.83,0,*4B
1517040128.12,28572,11.75,74110.3,0.61,-30.61,-31.01,0,*47
1517040129.37,28573,11.75,74112.0,0.61,-30.17,-30.61,0,*40
1517040130.62,28574,11.75,74112.3,0.63,-30.27,-30.77,0,*41
1517040131.86,28575,11.75,74114.5,0.63,-30.33,-30.77,0,*45
1517040133.11,28576,11.75,74108.3,0.63,-30.61,-31.17,0,*46
1517040134.33,28577,11.75,74108.5,0.63,-30.27,-30.83,0,*49
1517040135.58,28578,11.75,74110.0,0.63,-30.83,-31.23,0,*43
1517040136.85,28579,11.75,74108.5,0.63,-30.17,-30.77,0,*4F
1517040138.1,28580,11.75,74108.3,0.63,-30.83,-31.23,0,*44
1517040139.33,28581,11.75,74108.0,0.63,-30.27,-30.67,0,*4A
1517040140.54,28582,11.81,74110.8,0.65,-30.73,-31.29,0,*45
1517040141.75,28583,11.81,74112.5,0.65,-30.61,-31.01,0,*4D
1517040142.98,28584,11.81,74108.5,0.65,-30.55,-30.95,0,*41
1517040144.2,28585,11.75,74108.3,0.65,-30.51,-30.83,0,*43
1517040145.39,28586,11.81,74110.3,0.65,-30.45,-30.83,0,*45
1517040146.62,28587,11.81,74108.8,0.63,-30.51,-31.05,0,*48
1517040147.85,28588,11.81,74108.0,0.65,-30.55,-30.95,0,*4D
1517040149.07,28589,11.81,74108.8,0.63,-30.67,-31.17,0,*40
1517040150.28,28590,11.81,74110.0,0.65,-30.55,-31.01,0,*48
1517040151.47,28591,11.81,74110.5,0.65,-30.83,-31.29,0,*48
1517040152.66,28592,11.81,74110.3,0.65,-30.83,-31.33,0,*40
1517040153.87,28593,11.81,74112.8,0.65,-30.95,-31.29,0,*4D
1517040155.09,28594,11.81,74110.3,0.65,-30.95,-31.29,0,*4A
1517040156.34,28595,11.81,74108.8,0.63,-30.83,-31.23,0,*40
1517040157.55,28596,11.81,74114.0,0.65,-30.77,-31.17,0,*49
1517040158.8,28597,11.81,74108.8,0.67,-30.77,-31.17,0,*4A
1517040160.04,28598,11.81,74106.5,0.63,-30.77,-31.05,0,*42
1517040161.25,28599,11.81,74110.5,0.65,-30.77,-31.17,0,*46
1517040162.46,28600,11.81,74114.3,0.65,-30.61,-31.17,0,*42
1517040163.68,28601,11.81,74112.5,0.65,-30.77,-31.17,0,*44
1517040164.87,28602,11.81,74112.5,0.65,-30.83,-31.33,0,*4A
1517040166.11,28603,11.81,74110.0,0.65,-30.61,-31.11,0,*47
1517040167.31,28604,11.81,74108.8,0.65,-30.61,-31.01,0,*41
1517040168.55,28605,11.81,74108.5,0.63,-30.61,-31.01,0,*46
1517040169.77,28606,11.81,74112.3,0.65,-30.77,-31.17,0,*43
1517040170.99,28607,11.81,74110.5,0.65,-30.27,-30.77,0,*40
1517040172.2,28608,11.81,74114.8,0.65,-30.77,-31.33,0,*4B
1517040173.42,28609,11.81,74114.3,0.65,-30.61,-31.17,0,*4B
1517040174.66,28610,11.81,74108.8,0.67,-30.73,-31.17,0,*42
1517040175.93,28611,11.81,74110.5,0.67,-30.61,-31.11,0,*46
1517040177.18,28612,11.81,74110.3,0.67,-30.55,-30.95,0,*4F
1517040178.43,28613,11.88,74114.0,0.67,-31.11,-31.79,0,*4C
1517040179.64,28614,11.88,74110.8,0.65,-30.95,-31.33,0,*4A
1517040180.86,28615,11.81,74108.0,0.65,-30.77,-31.17,0,*41
1517040182.08,28616,11.88,74112.5,0.67,-30.83,-31.29,0,*46
1517040183.3,28617,11.88,74112.0,0.67,-31.01,-31.45,0,*46
1517040184.53,28618,11.88,74112.5,0.65,-30.55,-30.95,0,*47
1517040185.77,28619,11.88,74114.8,0.65,-31.11,-31.51,0,*4E
1517040186.98,28620,11.88,74114.8,0.65,-30.61,-31.01,0,*47
1517040188.17,28621,11.88,74116.8,0.65,-30.83,-31.45,0,*4A
1517040189.39,28622,11.88,74108.8,0.65,-30.77,-31.17,0,*45
1517040190.66,28623,11.88,74110.5,0.67,-30.61,-31.11,0,*47
1517040191.88,28624,11.88,74112.3,0.65,-30.27,-30.73,0,*45
1517040193.09,28625,11.88,74108.5,0.69,-30.39,-30.67,0,*42
1517040194.33,28626,11.88,74110.3,0.67,-30.61,-31.01,0,*43
1517040195.57,28627,11.88,74110.5,0.67,-30.61,-31.01,0,*42
1517040196.84,28628,11.88,74108.8,0.67,-30.61,-31.11,0,*4C
1517040198.07,28629,11.88,74108.5,0.67,-30.61,-31.01,0,*4C
1517040199.3,28630,11.88,74116.0,0.67,-30.83,-31.45,0,*48
1517040200.57,28631,11.88,74112.0,0.67,-30.73,-31.11,0,*47
1517040201.84,28632,11.88,74114.3,0.67,-30.39,-30.77,0,*4B
1517040203.08,28633,11.88,74112.5,0.67,-30.39,-30.83,0,*41
1517040204.32,28634,11.88,74110.0,0.67,-30.39,-30.83,0,*46
1517040205.56,28635,11.88,74112.0,0.67,-30.45,-30.95,0,*4B
1517040206.8,28636,11.88,74112.3,0.69,-30.05,-30.73,0,*4A
1517040208.0,28637,11.88,74114.5,0.69,-30.33,-30.67,0,*4B
1517040209.24,28638,11.88,74114.0,0.69,-30.51,-30.89,0,*40
1517040210.47,28639,11.88,74108.5,0.69,-30.55,-30.95,0,*48
1517040211.74,28640,11.88,74114.3,0.67,-30.73,-31.11,0,*41
1517040212.98,28641,11.88,74112.0,0.69,-30.39,-30.73,0,*45
1517040214.22,28642,11.88,74112.8,0.69,-30.39,-30.77,0,*42
1517040215.44,28643,11.88,74106.8,0.69,-30.51,-31.05,0,*49
1517040216.65,28644,11.88,74108.0,0.69,-30.33,-30.73,0,*4A
1517040217.9,28645,11.88,74110.0,0.69,-30.73,-31.23,0,*4B
1517040219.13,28646,11.88,74106.5,0.69,-30.55,-30.95,0,*40
1517040220.37,28647,11.88,74108.5,0.69,-30.51,-30.95,0,*45
1517040221.6,28648,11.94,74114.5,0.69,-30.51,-30.95,0,*4A
1517040222.81,28649,11.94,74108.3,0.69,-30.55,-31.05,0,*47
1517040224.03,28650,11.94,74112.0,0.69,-30.95,-31.45,0,*47
1517040225.25,28651,11.94,74108.0,0.69,-30.89,-31.45,0,*4B
1517040226.45,28652,11.94,74108.3,0.73,-31.01,-31.57,0,*41
1517040227.67,28653,11.94,74108.5,0.69,-31.45,-31.91,0,*41
1517040228.89,28654,11.94,74108.5,0.69,-31.39,-31.79,0,*4B
1517040230.16,28655,11.94,74112.5,0.67,-31.11,-31.51,0,*44
1517040231.38,28656,11.94,74112.0,0.69,-30.77,-31.29,0,*47
1517040232.61,28657,11.94,74108.8,0.67,-30.55,-31.01,0,*42
1517040233.85,28658,11.94,74108.5,0.67,-31.01,-31.61,0,*4B
1517040235.08,28659,11.94,74112.5,0.67,-30.55,-31.01,0,*4C
1517040236.33,28660,11.94,74112.8,0.69,-31.11,-31.61,0,*4F
1517040237.6,28661,11.94,74110.0,0.67,-31.11,-31.51,0,*43
1517040238.88,28662,11.94,74108.0,0.67,-31.11,-31.61,0,*43
1517040240.06,28663,11.94,74110.5,0.65,-30.83,-31.33,0,*4D
1517040241.34,28664,11.94,74110.0,0.67,-31.11,-31.61,0,*45
1517040242.58,28665,11.94,74110.8,0.67,-31.33,-31.85,0,*4E
1517040243.82,28666,11.94,74110.3,0.67,-30.95,-31.33,0,*4D
1517040245.08,28667,11.94,74106.3,0.67,-30.55,-30.95,0,*4D
1517040246.32,28668,11.94,74110.8,0.67,-30.77,-31.29,0,*44
1517040247.59,28669,11.94,74106.0,0.67,-30.61,-31.11,0,*49
1517040248.83,28670,11.94,74106.5,0.67,-30.77,-31.29,0,*4D
1517040250.08,28671,11.94,74110.5,0.67,-30.77,-31.29,0,*4C
1517040251.32,28672,11.94,74108.8,0.67,-30.77,-31.01,0,*45
1517040252.54,28673,11.94,74108.5,0.69,-30.95,-31.29,0,*4C
1517040253.78,28674,12.0,74112.8,0.67,-30.95,-31.33,0,*4E
1517040255.02,28675,11.94,74108.3,0.67,-30.61,-31.01,0,*45
1517040256.29,28676,12.0,74114.3,0.67,-31.11,-31.61,0,*46
1517040257.54,28677,12.0,74112.3,0.67,-30.73,-31.17,0,*43
1517040258.77,28678,12.0,74116.8,0.69,-30.55,-31.11,0,*40
1517040260.02,28679,12.0,74108.8,0.67,-30.95,-31.29,0,*48
1517040261.23,28680,12.0,74112.0,0.67,-31.01,-31.45,0,*48
1517040262.47,28681,12.0,74108.8,0.67,-30.61,-31.01,0,*4E
1517040263.72,28682,12.0,74108.3,0.69,-31.11,-31.61,0,*43
1517040264.97,28683,12.0,74110.3,0.67,-30.77,-31.45,0,*4B
1517040266.21,28684,12.0,74110.8,0.67,-30.95,-31.33,0,*41
1517040267.45,28685,12.0,74108.8,0.67,-30.77,-31.17,0,*4A
1517040268.69,28686,12.0,74110.8,0.67,-30.61,-31.01,0,*49
1517040269.93,28687,12.0,74110.3,0.67,-30.73,-31.01,0,*4B
1517040271.18,28688,12.0,74112.0,0.67,-30.77,-31.17,0,*47
1517040272.44,28689,12.0,74112.0,0.67,-30.55,-30.95,0,*4D
1517040273.66,28690,12.0,74116.0,0.69,-30.33,-30.73,0,*43
1517040274.89,28691,12.0,74110.8,0.69,-30.55,-31.11,0,*47
1517040276.13,28692,12.0,74114.3,0.69,-30.61,-31.11,0,*43
1517040277.37,28693,12.0,74108.8,0.69,-30.51,-30.89,0,*41
1517040278.59,28694,12.0,74110.8,0.69,-30.23,-30.73,0,*46
1517040279.79,28695,12.0,74112.5,0.69,-30.23,-30.67,0,*42
1517040281.03,28696,12.0,74108.3,0.73,-30.17,-30.51,0,*48
1517040282.27,28697,12.0,74114.0,0.73,-30.17,-30.61,0,*4A
1517040283.46,28698,12.0,74112.0,0.73,-30.45,-30.83,0,*4E
1517040284.65,28699,12.0,74110.8,0.73,-30.33,-30.83,0,*4E
1517040285.86,28700,12.06,74112.3,0.77,-30.23,-30.67,0,*40
1517040287.09,28701,12.0,74112.5,0.77,-29.95,-30.55,0,*45
1517040288.3,28702,12.0,74110.3,0.73,-30.11,-30.61,0,*41
1517040289.52,28703,12.0,74108.8,0.73,-30.23,-30.61,0,*41
1517040290.73,28704,12.06,74110.5,0.77,-30.27,-30.67,0,*40
1517040291.96,28705,12.0,74108.8,0.77,-30.11,-30.61,0,*42
1517040293.19,28706,12.06,74114.8,0.77,-30.39,-30.67,0,*4D
1517040294.4,28707,12.06,74108.3,0.77,-30.27,-30.67,0,*43
1517040295.6,28708,12.06,74112.8,0.77,-30.11,-30.67,0,*49
1517040296.84,28709,12.06,74114.8,0.77,-30.39,-30.95,0,*4F
1517040298.08,28710,12.06,74112.3,0.77,-30.27,-30.77,0,*44
1517040299.29,28711,12.06,74112.8,0.77,-30.27,-30.83,0,*4E
1517040300.52,28712,12.06,74108.3,0.77,-30.23,-30.61,0,*45
1517040301.75,28713,12.06,74110.3,0.79,-30.45,-30.83,0,*46
1517040303.01,28714,12.06,74110.5,0.81,-30.17,-30.61,0,*4D
1517040304.24,28715,12.06,74112.5,0.81,-30.23,-30.61,0,*4B
1517040305.49,28716,12.06,74112.0,0.79,-30.39,-30.67,0,*42
1517040306.75,28717,12.06,74108.8,0.81,-30.51,-30.89,0,*4A
1517040308.0,28718,12.06,74114.5,0.79,-30.61,-31.01,0,*40
1517040309.27,28719,12.06,74112.3,0.79,-30.61,-31.11,0,*40
1517040310.51,28720,12.06,74108.8,0.79,-30.67,-31.17,0,*4A
1517040311.76,28721,12.06,74116.3,0.81,-30.89,-31.39,0,*40
1517040312.98,28722,12.06,74114.0,0.81,-31.05,-31.57,0,*4E
1517040314.26,28723,12.06,74108.5,0.79,-31.11,-31.61,0,*48
1517040315.51,28724,12.06,74110.8,0.79,-31.01,-31.61,0,*4E
1517040316.74,28725,12.06,74110.5,0.79,-31.17,-31.67,0,*4E
1517040317.96,28726,12.06,74108.8,0.79,-31.01,-31.45,0,*4A
1517040319.21,28727,12.06,74110.8,0.79,-31.01,-31.51,0,*4E
1517040320.46,28728,12.06,74114.0,0.77,-30.95,-31.51,0,*43
1517040321.71,28729,12.06,74108.5,0.79,-31.01,-31.61,0,*43
1517040322.91,28730,12.06,74110.3,0.77,-30.83,-31.33,0,*49
1517040324.12,28731,12.13,74112.5,0.77,-30.67,-31.17,0,*44
1517040325.35,28732,12.06,74106.5,0.77,-30.77,-31.17,0,*46
1517040326.53,28733,12.13,74110.8,0.73,-30.45,-31.01,0,*45
1517040327.78,28734,12.13,74110.0,0.77,-30.39,-30.77,0,*4D
1517040329.01,28735,12.13,74108.5,0.79,-30.45,-30.83,0,*42
1517040330.25,28736,12.13,74108.5,0.79,-30.83,-31.45,0,*40
1517040331.5,28737,12.13,74110.0,0.79,-30.67,-31.11,0,*4A
1517040332.72,28738,12.13,74104.5,0.79,-30.45,-31.01,0,*44
1517040333.97,28739,12.13,74108.0,0.79,-30.61,-31.01,0,*43
1517040335.23,28740,12.13,74110.5,0.79,-30.83,-31.51,0,*44
1517040336.45,28741,12.13,74108.5,0.81,-30.61,-31.05,0,*4F
1517040337.7,28742,12.13,74108.8,0.81,-30.61,-31.11,0,*49
1517040338.96,28743,12.13,74110.3,0.79,-30.39,-30.83,0,*48
1517040340.19,28744,12.13,74108.3,0.79,-30.83,-31.17,0,*42
1517040341.47,28745,12.13,74106.8,0.79,-30.39,-30.77,0,*45
1517040342.7,28746,12.13,74108.3,0.79,-30.67,-31.17,0,*4A
1517040343.98,28747,12.13,74110.0,0.79,-30.39,-30.77,0,*47
1517040345.23,28748,12.13,74110.5,0.81,-30.95,-31.39,0,*42
1517040346.49,28749,12.13,74112.0,0.81,-30.73,-31.11,0,*41
1517040347.74,28750,12.13,74110.5,0.79,-31.01,-31.61,0,*4D
1517040348.99,28751,12.13,74110.3,0.79,-30.95,-31.33,0,*47
1517040350.23,28752,12.13,74108.8,0.79,-30.45,-30.95,0,*44
1517040351.46,28753,12.13,74110.3,0.79,-30.67,-31.01,0,*49
1517040352.7,28754,12.13,74108.0,0.79,-30.55,-31.01,0,*4F
1517040353.91,28755,12.13,74110.5,0.81,-30.45,-30.83,0,*43
1517040355.17,28756,12.13,74110.8,0.79,-30.23,-30.77,0,*4C
1517040356.42,28757,12.13,74106.8,0.81,-30.89,-31.39,0,*41
1517040357.67,28758,12.13,74110.0,0.79,-30.77,-31.33,0,*42
1517040358.9,28759,12.13,74110.5,0.79,-30.67,-31.29,0,*49
1517040360.17,28760,12.13,74110.5,0.79,-30.55,-30.95,0,*44
1517040361.44,28761,12.13,74106.8,0.79,-30.27,-30.77,0,*4C
1517040362.67,28762,12.19,74108.8,0.81,-30.23,-30.61,0,*4B
1517040363.89,28763,12.19,74110.3,0.81,-30.33,-30.95,0,*40
1517040365.15,28764,12.19,74108.8,0.81,-30.73,-31.11,0,*4E
1517040366.41,28765,12.19,74106.8,0.79,-30.95,-31.45,0,*41
1517040367.66,28766,12.19,74106.3,0.81,-30.89,-31.39,0,*43
1517040368.91,28767,12.19,74108.5,0.81,-30.73,-31.11,0,*4D
1517040370.19,28768,12.19,74104.8,0.79,-30.61,-31.11,0,*46
1517040371.42,28769,12.19,74110.0,0.81,-30.73,-31.29,0,*48
1517040372.68,28770,12.19,74106.3,0.81,-30.77,-31.23,0,*4E
1517040373.91,28771,12.19,74108.5,0.81,-30.89,-31.29,0,*44
1517040375.19,28772,12.19,74108.0,0.79,-31.11,-31.61,0,*4C
1517040376.41,28773,12.19,74110.0,0.81,-31.05,-31.57,0,*4A
1517040377.66,28774,12.19,74110.8,0.79,-30.95,-31.33,0,*40
1517040378.92,28775,12.19,74108.3,0.79,-30.67,-31.11,0,*4C
1517040380.2,28776,12.19,74108.5,0.79,-30.77,-31.11,0,*4E
1517040381.47,28777,12.19,74110.0,0.79,-30.61,-31.11,0,*48
1517040382.73,28778,12.19,74106.3,0.81,-30.55,-30.89,0,*47
1517040383.95,28779,12.19,74106.3,0.81,-30.51,-31.05,0,*47
1517040385.22,28780,12.19,74106.5,0.79,-30.55,-30.95,0,*4A
1517040386.47,28781,12.19,74110.0,0.81,-30.39,-30.89,0,*4B
1517040387.73,28782,12.19,74110.0,0.81,-30.55,-30.89,0,*42
1517040388.98,28783,12.19,74104.3,0.81,-30.61,-31.11,0,*44
1517040390.25,28784,12.19,74104.8,0.79,-30.39,-30.95,0,*44
1517040391.49,28785,12.19,74106.3,0.81,-30.55,-31.11,0,*45
1517040392.72,28786,12.25,74108.3,0.79,-30.45,-30.83,0,*4A
1517040393.95,28787,12.19,74108.5,0.81,-30.61,-31.05,0,*45
1517040395.2,28788,12.19,74104.5,0.79,-30.55,-30.83,0,*45
1517040396.46,28789,12.25,74110.0,0.79,-30.77,-31.17,0,*48
1517040397.69,28790,12.19,74104.8,0.81,-30.89,-31.45,0,*41
1517040398.92,28791,12.25,74108.0,0.81,-30.89,-31.45,0,*40
1517040400.18,28792,12.25,74110.3,0.81,-30.51,-30.89,0,*47
1517040401.41,28793,12.25,74110.5,0.81,-30.77,-31.29,0,*49
1517040402.64,28794,12.25,74108.5,0.79,-31.29,-31.79,0,*46
1517040403.89,28795,12.25,74108.3,0.79,-31.17,-31.61,0,*43
1517040405.11,28796,12.25,74104.5,0.79,-31.17,-31.67,0,*46
1517040406.34,28797,12.25,74108.8,0.79,-30.83,-31.33,0,*4A
1517040407.55,28798,12.25,74110.3,0.77,-30.83,-31.17,0,*4D
1517040408.78,28799,12.25,74108.0,0.79,-30.45,-30.83,0,*44
1517040410.0,28800,12.25,74110.5,0.79,-30.67,-31.01,0,*40
1517040411.26,28801,12.25,74108.0,0.79,-30.95,-31.45,0,*4C
1517040412.54,28802,12.25,74112.0,0.79,-30.95,-31.61,0,*49
1517040413.77,28803,12.25,74110.5,0.79,-31.29,-31.79,0,*47
1517040414.99,28804,12.25,74108.3,0.77,-30.95,-31.33,0,*46
1517040416.24,28805,12.25,74110.8,0.77,-30.61,-30.95,0,*41
1517040417.47,28806,12.25,74110.3,0.77,-30.23,-30.61,0,*4F
1517040418.71,28807,12.25,74108.8,0.77,-30.61,-30.95,0,*43
1517040419.99,28808,12.25,74112.0,0.79,-30.39,-30.77,0,*43
1517040421.25,28809,12.25,74110.5,0.79,-30.67,-31.11,0,*48
1517040422.49,28810,12.25,74110.0,0.79,-30.45,-30.95,0,*4D
1517040423.76,28811,12.25,74106.0,0.79,-30.61,-30.95,0,*4A
1517040425.02,28812,12.25,74110.8,0.81,-30.73,-31.11,0,*40
1517040426.26,28813,12.25,74110.0,0.79,-30.45,-30.95,0,*4E
1517040427.54,28814,12.25,74108.8,0.79,-30.39,-30.77,0,*4E
1517040428.78,28815,12.25,74106.0,0.79,-30.55,-31.01,0,*45
1517040430.02,28816,12.31,74110.3,0.79,-30.27,-30.67,0,*42
1517040431.27,28817,12.31,74108.5,0.81,-30.01,-30.51,0,*45
1517040432.53,28818,12.31,74106.5,0.81,-30.17,-30.55,0,*49
1517040433.76,28819,12.31,74106.0,0.81,-30.23,-30.61,0,*48
1517040434.99,28820,12.31,74108.5,0.81,-30.33,-30.73,0,*40
1517040436.21,28821,12.31,74106.3,0.81,-30.51,-31.05,0,*45
1517040437.48,28822,12.31,74106.8,0.79,-30.55,-30.95,0,*4D
1517040438.72,28823,12.31,74112.8,0.81,-30.33,-30.73,0,*43
1517040439.97,28824,12.31,74106.5,0.83,-30.33,-30.61,0,*45
1517040441.22,28825,12.31,74110.8,0.83,-30.61,-31.05,0,*40
1517040442.46,28826,12.31,74108.0,0.81,-30.73,-31.29,0,*4C
1517040443.73,28827,12.31,74110.3,0.83,-30.55,-30.95,0,*4D
1517040445.01,28828,12.31,74108.5,0.83,-30.39,-30.89,0,*45
1517040446.26,28829,12.31,74106.3,0.83,-30.61,-31.05,0,*4C
1517040447.53,28830,12.31,74104.3,0.79,-30.61,-31.11,0,*44
1517040448.79,28831,12.31,74104.5,0.81,-30.51,-30.89,0,*41
1517040450.05,28832,12.31,74106.0,0.83,-30.33,-30.77,0,*45
1517040451.31,28833,12.31,74104.3,0.83,-30.33,-30.61,0,*43
1517040452.59,28834,12.31,74106.8,0.83,-30.51,-30.95,0,*4B
1517040453.87,28835,12.31,74106.3,0.83,-30.73,-31.11,0,*47
1517040455.13,28836,12.31,74104.0,0.83,-30.23,-30.61,0,*47
1517040456.39,28837,12.31,74106.8,0.83,-30.27,-30.73,0,*41
1517040457.67,28838,12.31,74104.8,0.83,-30.39,-30.77,0,*45
1517040458.93,28839,12.31,74104.3,0.85,-30.55,-30.89,0,*49
1517040460.13,28840,12.31,74102.8,0.85,-30.33,-30.83,0,*4D
1517040461.35,28841,12.31,74104.3,0.85,-30.27,-30.83,0,*49
1517040462.61,28842,12.38,74104.5,0.83,-30.33,-30.73,0,*46
1517040463.84,28843,12.38,74104.5,0.85,-30.17,-30.67,0,*42
1517040465.12,28844,12.31,74102.8,0.87,-30.17,-30.55,0,*46
1517040466.36,28845,12.38,74102.5,0.85,-30.17,-30.67,0,*44
1517040467.59,28846,12.31,74100.0,0.85,-30.33,-30.73,0,*44
1517040468.83,28847,12.38,74102.3,0.87,-30.27,-30.67,0,*47
1517040470.07,28848,12.38,74104.0,0.85,-30.01,-30.55,0,*4F
1517040471.31,28849,12.38,74102.3,0.87,-29.95,-30.45,0,*48
1517040472.51,28850,12.38,74102.3,0.85,-30.11,-30.45,0,*46
1517040473.77,28851,12.38,74102.5,0.87,-30.27,-30.73,0,*45
1517040475.02,28852,12.38,74104.8,0.85,-30.55,-30.89,0,*44
1517040476.25,28853,12.38,74106.0,0.85,-30.45,-30.89,0,*44
1517040477.46,28854,12.38,74106.0,0.85,-30.27,-30.67,0,*47
1517040478.7,28855,12.38,74106.5,0.85,-30.17,-30.67,0,*45
1517040479.95,28856,12.38,74102.3,0.87,-30.27,-30.55,0,*46
1517040481.21,28857,12.38,74106.5,0.87,-30.17,-30.67,0,*45
1517040482.49,28858,12.38,74104.3,0.87,-30.17,-30.55,0,*4B
1517040483.73,28859,12.38,74100.0,0.87,-30.55,-31.01,0,*4C
1517040484.96,28860,12.38,74106.0,0.87,-30.67,-31.05,0,*43
1517040486.21,28861,12.38,74102.8,0.87,-30.55,-31.05,0,*43
1517040487.46,28862,12.38,74102.8,0.89,-30.51,-31.11,0,*4F
1517040488.74,28863,12.38,74100.8,0.87,-30.51,-30.89,0,*40
1517040490.0,28864,12.38,74104.0,0.87,-30.27,-30.73,0,*43
1517040491.25,28865,12.38,74102.3,0.89,-30.39,-30.77,0,*47
1517040492.48,28866,12.38,74100.8,0.89,-30.27,-30.61,0,*4C
1517040493.71,28867,12.38,74102.5,0.89,-30.67,-31.11,0,*4F
1517040494.93,28868,12.38,74100.5,0.89,-30.77,-31.33,0,*41
1517040496.17,28869,12.38,74100.8,0.87,-30.45,-30.83,0,*45
1517040497.41,28870,12.38,74098.3,0.87,-30.55,-31.05,0,*43
1517040498.67,28871,12.44,74102.5,0.87,-30.51,-30.83,0,*49
1517040499.9,28872,12.38,74096.3,0.87,-30.33,-30.83,0,*4E
1517040501.14,28873,12.38,74102.8,0.89,-30.39,-30.95,0,*4C
1517040502.36,28874,12.44,74100.0,0.89,-30.39,-30.83,0,*4C